GFSWCAN_700_temp_273.txt.gz
Temp
-1 -1 -1 -1 -1 -1 -1 -1 -1 -1 -1 -1 -1 -2 -2 -1 0 1 1 1 3 5 6 6 6 7 8 10 10 12 12 12 13 14 14 16 16 16 16 17 16 16 16 16 16 16 15 14 14 14 12 12 12 12
-1 -1 -2 -2 -2 -2 -1 -1 -1 -1 -1 -1 -3 -3 -2 -1 -0 1 1 1 3 5 7 6 7 7 8 9 9 10 12 12 13 14 14 15 16 16 16 16 16 16 15 15 15 14 14 13 13 12 12 12 13 13
-1 -1 -2 -2 -2 -2 -2 -2 -1 -1 -1 -2 -2 -3 -2 -2 -1 -0 0 1 3 4 5 6 6 7 7 9 9 10 11 12 12 13 13 14 14 15 15 15 15 14 15 15 14 13 13 13 12 12 12 12 12 13
-1 -2 -2 -2 -2 -2 -2 -2 -2 -2 -2 -2 -2 -2 -2 -2 -2 -1 0 0 1 3 4 6 6 6 6 7 9 9 10 10 11 12 12 13 13 13 14 13 13 13 13 13 13 13 13 12 12 12 12 12 12 11
-2 -2 -2 -2 -3 -3 -3 -2 -2 -2 -2 -2 -2 -2 -2 -2 -2 -2 -0 -0 1 3 5 6 5 5 6 6 8 8 9 9 10 11 12 12 12 12 12 13 13 12 12 12 12 12 13 12 12 12 12 12 11 11
-2 -2 -3 -3 -3 -3 -3 -3 -3 -2 -3 -2 -2 -2 -2 -2 -2 -2 -1 0 1 3 4 5 6 6 7 7 7 8 7 9 10 10 11 11 11 11 11 12 12 12 11 12 12 11 12 12 11 11 11 11 10 10
-3 -3 -3 -3 -3 -4 -4 -4 -3 -3 -3 -3 -3 -2 -3 -2 -2 -2 -0 0 1 2 3 5 6 7 7 7 6 8 8 7 8 10 11 10 11 11 11 11 11 11 10 11 11 11 11 11 10 11 11 9 9 9
-3 -3 -3 -3 -4 -4 -4 -4 -3 -3 -3 -3 -3 -3 -3 -3 -2 -1 -1 0 2 2 3 4 5 6 6 6 6 7 8 9 9 9 10 10 10 10 10 10 10 10 10 10 10 11 10 10 10 10 10 8 8 9
-3 -3 -3 -4 -4 -4 -4 -4 -3 -3 -3 -3 -3 -3 -3 -2 -2 -1 -0 1 1 2 2 3 3 4 5 6 7 7 7 8 8 9 9 10 9 10 10 10 9 9 10 10 10 10 9 9 9 9 9 8 8 8
-3 -3 -3 -4 -4 -4 -4 -3 -3 -3 -3 -4 -4 -4 -3 -2 -2 -1 -0 0 1 2 3 4 5 5 6 7 7 7 7 8 8 9 9 9 9 10 10 9 9 9 10 10 10 8 8 8 8 8 8 7 8 8
-4 -4 -4 -4 -4 -4 -4 -4 -3 -3 -4 -4 -4 -4 -3 -2 -1 -0 0 1 1 2 4 5 5 5 5 7 7 7 8 8 8 8 9 9 9 9 9 9 10 9 9 9 9 8 8 9 8 7 8 8 8 8
-4 -4 -4 -4 -4 -4 -4 -4 -3 -3 -4 -4 -4 -3 -3 -2 -1 -0 1 1 2 3 3 5 5 5 5 6 7 8 8 9 9 9 9 9 9 9 9 9 9 8 9 9 9 8 8 7 7 8 7 7 7 7
-5 -5 -5 -4 -4 -4 -4 -4 -4 -4 -4 -4 -4 -4 -3 -1 -1 -0 1 2 3 3 5 5 5 4 5 2 4 7 8 9 9 9 9 9 9 9 9 8 8 8 9 8 9 8 8 8 8 8 8 7 7 7
-5 -5 -5 -4 -4 -4 -4 -4 -4 -4 -4 -4 -4 -3 -2 -1 -0 1 2 3 4 4 5 5 5 4 5 3 5 6 5 7 9 9 9 9 8 8 7 8 8 8 8 8 8 8 8 8 7 7 7 7 6 5
-5 -5 -5 -4 -4 -4 -4 -4 -4 -4 -5 -4 -3 -2 -1 -1 1 1 2 3 3 4 5 5 5 5 5 4 2 4 6 6 7 9 8 8 8 7 5 7 7 8 8 7 7 7 7 7 7 7 6 6 5 4
-5 -5 -5 -5 -4 -4 -4 -4 -4 -4 -4 -4 -3 -2 -1 -0 1 2 2 3 4 4 5 4 5 5 4 4 4 5 5 6 6 7 7 7 7 7 7 7 7 7 7 7 7 7 7 7 6 6 5 4 4 3
-6 -7 -5 -5 -4 -4 -4 -4 -4 -4 -4 -3 -2 -2 -1 0 1 2 3 3 3 3 4 3 4 4 4 5 4 5 6 6 6 7 7 7 7 7 7 6 7 7 7 6 6 6 6 6 5 5 4 4 4 4
-7 -5 -4 -4 -4 -4 -4 -4 -4 -4 -3 -3 -2 -1 -0 0 1 2 2 3 2 2 3 3 4 4 4 4 4 6 5 5 6 6 6 6 7 7 6 6 6 5 6 5 5 5 5 4 4 4 4 4 4 4
-4 -4 -4 -4 -4 -4 -4 -4 -4 -3 -3 -2 -2 -1 -0 1 1 2 2 2 2 2 2 2 3 4 4 4 5 6 5 5 5 6 6 6 5 5 4 4 5 4 4 4 4 4 4 4 4 3 4 4 4 3
-4 -4 -4 -4 -4 -4 -4 -4 -4 -3 -2 -2 -1 -1 -0 0 1 2 2 2 2 2 2 2 3 3 4 4 3 4 4 4 5 5 4 4 4 4 4 3 3 4 4 4 3 3 3 3 3 3 3 3 3 3
-4 -4 -4 -4 -4 -3 -3 -3 -3 -3 -2 -2 -1 -0 0 1 1 2 2 1 1 1 1 2 2 3 4 4 4 4 4 5 5 5 5 5 5 5 4 4 3 3 2 2 2 2 3 3 2 2 3 2 3 2
-4 -4 -4 -4 -4 -3 -3 -3 -2 -2 -1 -1 -1 0 1 1 1 1 2 1 1 2 2 2 2 3 3 4 4 4 4 5 4 4 3 3 3 3 3 2 2 2 1 1 1 2 2 2 2 2 2 2 2 2
-4 -3 -4 -4 -3 -2 -2 -2 -2 -1 -1 -1 -0 -0 0 1 1 1 1 1 2 2 2 2 2 2 2 3 3 4 3 4 3 3 3 3 3 2 2 1 1 1 1 2 2 2 2 2 2 2 2 2 2 1
-3 -2 -3 -3 -2 -2 -1 -1 -1 -1 -1 -1 -0 -0 -0 0 1 1 1 1 2 2 2 2 2 2 3 3 4 3 3 3 3 3 2 2 1 1 0 -0 -0 0 -0 1 2 2 2 2 2 2 1 1 1 1
-2 -2 -3 -2 -2 -2 -1 -1 -0 -0 -1 -0 0 -0 0 0 1 1 1 1 1 1 2 2 3 2 2 2 2 2 2 2 2 2 1 0 0 -0 -0 -1 -1 -0 0 1 2 2 2 1 1 1 1 1 0 -1
-2 -2 -2 -2 -1 -1 -1 -1 -0 -0 -0 -0 -0 -0 0 1 1 0 1 1 1 1 1 2 2 2 1 1 2 1 2 1 2 2 1 0 -0 -1 -0 -0 0 0 1 1 1 1 1 1 1 1 0 0 -1 -1
-2 -2 -2 -1 -1 -1 -1 -0 -0 -0 -0 0 0 1 0 0 0 -0 1 1 1 1 1 1 1 2 1 1 1 1 1 1 1 1 -0 -0 0 0 -0 0 2 1 1 1 1 1 1 1 0 0 -0 -1 -1 -1
-2 -2 -1 -2 -1 -1 -0 0 0 0 0 0 1 1 1 0 0 -0 0 1 1 1 1 1 1 1 0 -0 0 0 0 0 -0 0 0 1 1 1 1 0 1 1 1 1 1 1 0 0 -0 -0 -1 -1 -1 -2
-1 -1 -1 -1 -1 -0 -1 0 0 0 0 1 1 1 1 2 1 1 1 1 0 0 1 2 2 2 1 1 1 2 1 1 1 1 1 1 1 1 1 1 1 1 1 1 0 0 -0 -0 -0 -1 -1 -1 -2 -2
-1 -1 -1 -1 -1 -0 -0 -0 -0 0 0 0 1 1 2 1 1 1 1 1 -1 -1 -0 0 0 0 0 1 0 0 0 -0 -0 -1 -1 -1 -1 -0 1 1 1 1 1 1 0 -0 -0 -1 -1 -1 -2 -3 -3 -4
-1 -1 -1 -1 -0 -0 -0 -1 -0 -0 -0 1 1 2 1 1 0 1 0 -1 -1 -1 -1 -1 -1 -1 -1 -1 -1 -1 -1 -1 -1 -1 -1 -1 -1 -1 0 0 0 0 0 -0 -0 -0 -0 -1 -1 -3 -4 -4 -4 -4
-1 -1 -1 -1 -1 -0 -1 -0 -0 0 1 0 0 0 0 0 0 1 1 0 -1 -1 -0 -0 -0 -0 -0 -1 -1 -1 -1 0 1 0 0 0 1 1 0 0 0 0 0 -0 -1 -1 -2 -3 -3 -4 -4 -4 -4 -4
-1 -1 -0 -1 -1 -1 -1 -1 -1 -0 -0 -0 0 -0 -1 -0 -0 1 1 1 1 -0 -0 0 -0 -0 -0 -1 -1 -0 0 0 0 0 1 1 0 1 0 0 0 0 -0 -1 -1 -2 -2 -3 -4 -4 -4 -3 -3 -2

GFSWCAN_700_temp_276.txt.gz
Temp
-0 -1 -1 -1 -1 -1 -1 -1 -1 -1 -0 -0 -0 -0 -0 -0 0 -0 -1 0 2 4 5 5 5 6 7 9 10 11 12 13 13 14 15 15 16 16 16 16 17 17 16 16 16 16 15 14 14 15 15 15 14 14
-1 -1 -1 -1 -1 -1 -2 -1 -1 -1 -1 -1 -1 -1 -1 -1 -1 -1 -1 -1 1 3 4 5 5 5 6 7 9 10 12 12 12 13 14 15 16 16 16 16 16 16 16 16 16 15 14 14 15 14 13 13 13 13
-1 -1 -1 -1 -2 -2 -2 -2 -1 -1 -1 -1 -1 -1 -2 -3 -2 -1 -1 -1 -0 1 4 4 5 5 4 5 7 9 11 12 12 13 13 14 14 15 15 15 15 15 15 15 15 13 13 13 13 13 13 13 13 13
-1 -1 -1 -2 -2 -2 -2 -2 -2 -2 -2 -2 -2 -2 -2 -3 -2 -2 -1 -2 -1 -0 2 4 4 5 5 5 6 7 9 10 11 12 13 13 14 14 14 14 14 14 14 14 14 13 13 13 13 12 12 12 12 12
-2 -2 -2 -2 -2 -2 -3 -3 -2 -2 -2 -2 -2 -2 -2 -2 -3 -3 -2 -1 -1 0 3 4 4 6 5 5 6 6 8 10 11 12 12 13 13 13 13 13 13 13 13 13 12 13 13 12 12 12 12 12 11 10
-2 -2 -2 -2 -2 -3 -3 -3 -3 -3 -3 -2 -3 -3 -2 -2 -2 -2 -2 -1 -1 0 2 3 5 6 4 4 6 6 7 9 10 11 11 12 12 13 13 12 12 12 13 12 12 12 12 12 11 12 11 10 10 10
-2 -2 -3 -3 -3 -3 -4 -5 -4 -3 -3 -3 -3 -3 -2 -2 -2 -2 -2 -1 -1 0 1 3 4 6 6 6 6 6 7 7 9 9 10 11 11 12 12 12 11 11 11 11 12 12 12 11 11 10 11 10 9 9
-3 -3 -3 -3 -3 -5 -6 -5 -5 -4 -3 -3 -3 -3 -3 -2 -3 -2 -2 -1 0 -0 1 3 5 4 5 5 5 6 7 7 7 9 10 10 10 11 11 11 11 11 11 11 11 10 10 10 10 9 9 9 8 9
-3 -3 -3 -3 -4 -4 -5 -4 -4 -3 -3 -3 -3 -3 -3 -3 -2 -2 -1 -0 -0 0 1 2 5 5 5 5 6 6 6 6 7 8 10 10 9 10 10 11 11 10 10 10 10 10 10 10 9 8 8 8 9 8
-4 -4 -4 -4 -4 -4 -4 -4 -4 -3 -3 -3 -3 -4 -3 -3 -3 -2 -1 -0 -1 0 1 3 4 5 5 6 6 6 7 7 8 9 8 8 9 10 10 10 10 10 9 9 10 10 10 9 8 8 8 8 8 8
-4 -4 -4 -4 -4 -4 -4 -4 -4 -4 -4 -3 -3 -3 -3 -3 -2 -2 -0 -0 0 1 2 3 4 5 6 6 6 7 7 7 8 8 9 9 9 9 9 9 9 9 9 9 9 9 9 8 8 8 8 8 7 8
-5 -5 -5 -4 -4 -4 -4 -4 -4 -4 -4 -4 -4 -4 -4 -3 -2 -1 -0 1 1 2 3 4 4 4 3 4 5 7 7 8 8 8 8 8 9 9 9 9 9 9 9 9 9 9 9 8 8 8 8 7 7 8
-5 -5 -5 -5 -4 -4 -4 -4 -4 -4 -4 -4 -4 -3 -3 -2 -2 -0 0 1 3 3 4 5 5 4 3 4 5 6 7 8 8 8 8 9 9 8 9 9 8 8 8 8 8 8 8 8 8 8 8 7 7 7
-6 -6 -5 -5 -5 -4 -4 -4 -4 -5 -5 -5 -4 -3 -3 -2 -1 0 1 3 3 4 4 4 5 4 5 4 3 5 6 8 8 9 9 9 8 8 7 8 7 8 8 8 8 8 8 7 7 7 7 7 7 6
-5 -5 -5 -5 -5 -4 -4 -4 -4 -5 -5 -4 -4 -3 -2 -1 -0 0 2 3 3 3 4 4 4 4 5 4 4 5 5 6 8 8 8 8 8 8 7 7 8 5 6 7 7 7 7 7 7 7 7 6 5 5
-6 -6 -5 -5 -4 -4 -4 -4 -4 -5 -4 -4 -3 -2 -1 -0 0 1 2 3 4 4 4 3 3 3 4 4 3 4 4 6 6 7 7 7 7 8 8 8 7 6 6 7 7 7 7 7 7 6 6 5 4 5
-6 -8 -5 -5 -4 -4 -4 -4 -5 -4 -3 -3 -2 -2 -1 -0 1 1 2 3 3 4 4 3 2 3 2 3 4 6 5 7 6 7 7 6 6 7 7 7 7 6 6 6 6 6 6 6 6 5 5 4 4 4
-6 -5 -5 -4 -4 -4 -4 -4 -5 -4 -3 -2 -2 -1 -1 0 1 1 2 3 3 3 4 4 3 3 4 4 5 6 6 6 6 6 5 5 5 6 6 6 7 6 6 6 6 6 5 5 5 4 4 4 4 4
-4 -4 -4 -4 -4 -4 -4 -4 -4 -3 -2 -2 -1 -1 -0 0 1 2 2 1 2 3 3 4 3 3 4 5 5 5 6 6 5 5 5 4 4 4 5 6 5 5 6 5 5 5 4 4 4 4 4 4 3 3
-4 -4 -4 -4 -4 -4 -4 -3 -3 -3 -2 -2 -1 -1 0 1 1 2 1 1 2 2 3 3 3 4 4 4 4 5 5 5 5 5 5 4 4 5 4 4 4 4 4 4 4 4 3 3 3 3 3 3 3 3
-4 -4 -4 -4 -3 -4 -3 -3 -3 -2 -2 -1 -1 -0 1 1 1 1 1 1 1 2 2 2 2 3 4 4 4 4 5 5 5 5 6 6 4 3 4 4 3 3 3 3 3 2 2 2 3 3 3 2 2 3
-4 -4 -4 -4 -3 -3 -3 -2 -2 -2 -1 -1 -1 0 0 0 0 0 1 1 0 1 2 3 2 2 3 4 3 3 4 4 4 4 4 4 4 4 3 3 3 3 3 2 2 1 2 2 2 2 2 2 2 2
-4 -4 -4 -3 -3 -3 -2 -2 -2 -2 -1 -1 -0 0 0 0 1 1 1 1 1 1 1 2 2 2 3 3 3 3 3 3 3 3 4 4 3 3 3 3 2 2 2 2 1 2 2 2 2 2 2 2 2 2
-4 -3 -3 -2 -2 -1 -1 -1 -1 -1 -1 -1 -0 -0 -0 0 1 1 1 1 1 2 2 2 2 2 3 3 3 3 2 2 2 3 3 2 3 2 2 2 2 2 2 2 2 2 2 2 2 2 2 2 2 1
-2 -3 -2 -1 -1 -1 -1 -1 -0 -1 -1 -0 -0 -0 0 0 0 0 1 1 1 2 1 2 2 2 2 2 3 3 3 3 2 2 2 2 2 2 2 2 2 2 2 2 2 2 2 2 2 2 2 1 1 1
-2 -2 -2 -2 -2 -1 -1 -1 -1 -0 -0 0 -0 -1 0 1 1 1 1 0 1 2 2 2 2 2 2 2 2 2 2 2 2 2 2 2 2 2 1 1 1 1 1 1 1 2 2 2 1 1 1 1 1 0
-1 -2 -2 -1 -1 -2 -1 -1 -0 -0 0 0 -0 0 0 0 0 1 1 1 2 2 1 2 2 2 2 2 2 1 1 1 1 1 1 1 1 1 -0 -0 0 -0 0 1 1 2 1 1 1 1 1 0 -0 -1
-2 -2 -1 -2 -1 -1 -1 -1 -0 -0 0 1 1 1 0 0 1 0 1 1 1 1 2 2 1 1 1 1 1 1 1 1 0 1 0 0 0 -0 0 0 1 1 1 1 1 1 1 1 0 -0 -1 -1 -1 -2
-1 -1 -1 -1 -1 -1 -0 0 0 0 0 1 1 1 1 1 -0 -0 0 0 0 1 1 1 1 1 1 1 0 0 1 1 -0 0 0 1 1 1 1 1 1 1 1 1 1 1 0 -0 -0 -1 -1 -1 -1 -2
-1 -1 -1 -1 -0 -0 -1 -0 -0 0 1 1 1 2 2 1 0 -0 0 1 1 1 1 1 1 1 1 1 0 0 -0 0 0 0 1 1 1 1 1 1 1 1 1 1 0 0 -0 -0 -1 -1 -1 -2 -3 -3
-1 -1 -0 -0 -0 -0 -0 -0 -0 0 0 2 2 1 1 1 -0 -0 -0 -0 -0 -0 0 0 1 1 1 1 1 1 1 1 -1 -1 0 0 0 0 0 0 1 1 0 0 0 -0 -0 -1 -1 -1 -2 -3 -3 -3
-1 -1 -1 -0 -0 -0 -1 -1 -1 -0 -0 -1 -1 0 1 1 1 1 1 0 -0 -0 -0 -0 -0 -0 -0 -0 -0 -0 0 -1 -1 -1 -1 -1 -0 -0 -1 -1 0 0 -0 -0 -0 -1 -1 -1 -1 -2 -3 -3 -4 -3
-1 -1 -0 -0 -0 -1 -1 -1 -1 -1 -1 -0 -1 -1 -1 -0 0 0 1 1 1 0 -0 -0 -0 -0 -0 -0 -0 -0 -0 -1 -1 -1 -1 0 0 0 0 0 0 0 -0 -1 -1 -1 -1 -2 -2 -2 -2 -2 -2 -2

GFSWCAN_700_temp_279.txt.gz
Temp
-1 -0 -0 -1 -1 -1 -1 -1 -1 -1 -1 -0 -0 -0 0 0 0 -1 -0 1 1 2 4 4 4 6 6 6 8 10 12 12 13 14 14 15 15 16 16 17 16 17 16 16 16 16 15 15 15 15 15 15 14 14
-0 -0 -1 -1 -1 -1 -1 -1 -1 -1 -1 -1 -1 -1 -1 -0 -0 -1 -1 -0 1 2 3 4 4 6 6 5 7 8 10 11 12 13 14 15 15 16 16 16 16 16 16 16 16 16 15 16 16 16 14 14 13 13
-1 -1 -1 -1 -1 -1 -1 -1 -1 -1 -1 -1 -1 -1 -1 -1 -1 -2 -2 -2 -1 1 3 4 5 4 5 5 5 7 8 9 10 12 13 14 15 15 16 16 16 16 16 16 15 14 14 14 14 14 13 13 13 12
-1 -1 -1 -1 -2 -2 -2 -2 -2 -1 -1 -2 -2 -1 -1 -2 -2 -2 -3 -2 -2 -1 -0 3 4 4 5 5 5 6 7 8 11 12 12 13 14 14 15 16 15 16 15 15 15 13 13 13 13 12 12 12 12 12
-1 -2 -2 -2 -2 -2 -2 -2 -2 -2 -2 -2 -2 -2 -2 -2 -2 -3 -3 -2 -2 -1 -0 3 2 3 4 5 4 5 6 8 10 11 12 12 13 14 14 14 15 15 15 15 14 14 13 13 12 12 12 12 11 11
-2 -2 -2 -2 -3 -2 -2 -3 -3 -3 -3 -3 -2 -2 -2 -2 -2 -3 -3 -2 -2 -2 -1 2 2 3 3 4 4 5 6 7 9 10 12 12 13 13 14 13 13 13 13 13 14 13 12 12 12 12 11 11 11 11
-3 -3 -3 -3 -3 -3 -3 -4 -4 -4 -3 -3 -3 -3 -3 -3 -3 -3 -3 -1 -2 -2 -1 -0 2 2 3 4 5 5 6 6 8 9 11 12 12 13 13 13 12 12 12 12 12 12 12 12 12 12 11 11 10 10
-3 -3 -3 -3 -3 -4 -4 -4 -5 -5 -4 -3 -3 -3 -3 -3 -3 -3 -3 -3 -3 -1 -1 1 3 2 2 3 5 5 6 6 6 8 10 11 11 12 12 12 12 12 12 12 12 12 12 11 11 11 10 10 9 9
-4 -4 -4 -4 -4 -4 -4 -4 -4 -4 -4 -3 -3 -3 -3 -3 -3 -3 -3 -3 -3 -2 -1 1 3 3 3 4 5 5 6 6 6 7 9 10 10 11 11 12 11 11 11 12 11 11 11 10 10 10 9 9 8 8
-4 -5 -4 -4 -4 -4 -4 -4 -4 -4 -4 -4 -4 -4 -4 -4 -4 -3 -3 -3 -3 -2 -0 1 3 4 4 3 4 4 3 4 6 7 8 8 9 10 10 10 10 10 11 10 10 10 10 10 10 9 8 8 8 8
-5 -5 -5 -5 -5 -5 -5 -5 -4 -4 -4 -4 -4 -4 -4 -4 -4 -3 -3 -2 -1 -1 0 2 3 3 3 4 4 4 4 6 7 8 7 7 8 9 9 9 9 10 9 9 9 9 9 9 8 8 7 8 8 8
-6 -6 -6 -6 -5 -5 -5 -5 -5 -4 -4 -4 -4 -4 -4 -4 -3 -2 -2 -0 0 1 2 3 3 3 3 4 4 4 5 7 7 7 7 6 8 9 9 9 9 9 9 9 9 9 9 8 8 8 8 8 8 8
-6 -6 -6 -6 -6 -5 -5 -5 -4 -5 -5 -5 -5 -4 -4 -3 -3 -2 -0 1 1 3 3 4 3 3 3 4 4 4 7 7 8 8 8 8 8 9 9 9 9 8 8 8 8 8 8 8 8 8 7 7 7 7
-6 -6 -6 -6 -6 -5 -5 -4 -4 -5 -5 -5 -5 -4 -3 -2 -2 -1 -0 1 2 3 4 4 4 4 4 4 4 4 5 7 7 7 8 9 8 9 9 9 8 8 8 8 8 8 7 7 7 7 7 7 7 7
-7 -6 -6 -5 -5 -5 -4 -4 -4 -4 -5 -5 -4 -3 -2 -1 -1 -0 1 2 2 2 3 3 3 4 3 3 3 4 5 7 7 8 8 8 8 8 8 8 7 7 8 7 7 7 7 7 7 7 7 7 7 6
-6 -6 -5 -5 -5 -4 -4 -4 -5 -5 -4 -4 -3 -2 -2 -1 0 1 1 2 3 3 3 2 3 4 4 4 5 5 6 6 7 8 8 8 8 7 7 7 7 7 7 7 7 7 7 7 7 7 7 7 6 5
-7 -5 -5 -4 -4 -4 -4 -5 -4 -4 -4 -3 -2 -2 -1 -1 -0 1 2 2 3 2 3 2 3 3 3 4 4 5 6 6 6 7 7 7 6 6 6 6 7 7 6 6 6 6 6 6 6 6 6 6 5 5
-4 -4 -4 -4 -4 -4 -5 -4 -4 -4 -3 -2 -2 -1 -1 0 1 1 2 3 3 3 2 2 2 3 4 4 4 5 5 6 6 6 6 6 6 6 5 6 6 6 6 6 6 6 6 6 5 5 5 5 4 4
-4 -4 -4 -4 -4 -4 -4 -4 -4 -3 -2 -2 -1 -0 1 1 0 2 2 2 3 2 3 2 3 3 4 4 5 5 5 5 6 6 6 5 5 4 5 5 6 6 6 5 5 5 5 4 4 4 4 4 4 4
-4 -4 -4 -4 -4 -4 -3 -3 -3 -2 -2 -1 -1 0 1 1 1 1 1 2 2 3 3 3 5 4 4 6 5 5 5 5 5 6 5 4 4 4 4 5 6 5 5 4 4 4 4 4 4 3 3 3 3 3
-4 -4 -4 -4 -4 -4 -3 -3 -2 -2 -2 -1 -0 0 1 0 1 1 1 1 2 2 3 4 4 5 4 5 5 4 4 4 4 5 5 4 4 4 3 3 3 3 3 3 3 3 3 3 3 3 3 3 3 3
-4 -4 -3 -3 -3 -3 -3 -2 -2 -2 -1 -1 0 0 -0 -0 0 0 0 1 1 2 2 3 3 4 5 4 4 4 4 3 3 3 3 4 4 3 3 3 3 3 3 2 2 2 2 2 2 3 3 3 3 3
-3 -3 -3 -3 -3 -2 -3 -2 -1 -1 -1 -0 0 0 0 -0 -0 0 0 1 1 1 2 3 3 3 3 3 3 3 3 3 3 3 3 3 3 2 3 3 2 2 2 2 2 2 2 2 2 2 2 2 2 1
-2 -2 -2 -2 -2 -2 -1 -1 -2 -1 -1 -1 -0 -0 -0 -0 0 0 0 1 0 1 2 2 3 3 2 2 2 2 2 2 2 3 2 2 2 2 2 2 2 2 1 1 2 2 2 2 2 2 2 1 1 1
-2 -2 -2 -2 -2 -1 -1 -1 -1 -1 -0 -1 -0 -0 -0 0 0 1 1 1 1 1 2 2 3 2 3 3 3 3 2 2 2 3 2 2 1 2 2 1 1 0 1 1 2 1 2 2 2 2 1 1 1 1
-2 -2 -2 -2 -2 -1 -1 -0 -1 -0 -0 -0 0 0 1 1 1 1 1 1 1 1 1 1 2 2 2 2 2 2 3 2 2 2 2 1 1 1 1 1 1 1 1 1 1 1 1 1 1 1 1 1 0 0
-1 -2 -2 -2 -1 -1 -1 -1 -0 0 -0 -0 -0 1 1 1 1 1 1 1 1 1 2 1 1 2 2 2 2 2 3 3 2 2 2 1 1 0 0 0 1 0 1 1 1 1 1 1 1 1 1 0 0 -0
-2 -1 -2 -2 -1 -1 -1 -0 0 0 0 1 1 1 1 1 1 1 1 1 1 1 1 2 2 1 2 2 2 2 1 1 1 1 0 1 0 1 1 1 0 0 0 1 1 1 1 1 1 1 1 0 -0 -1
-1 -1 -1 -1 -1 -0 0 -0 -0 0 0 1 1 1 0 0 0 1 1 1 1 1 1 1 1 1 2 1 1 1 1 1 1 0 0 -0 0 1 0 1 1 1 1 1 1 1 1 1 1 0 -0 -0 -1 -1
-1 -1 -0 -0 0 0 -0 0 0 1 1 1 2 1 0 -0 -0 -0 -0 0 0 1 1 1 0 1 1 0 0 1 1 1 1 1 0 -0 0 0 0 1 1 1 1 1 1 1 0 0 -0 -0 -1 -1 -1 -2
-1 -1 -0 -0 -0 -1 -0 -0 -1 1 2 2 1 1 1 0 -1 0 0 1 1 1 1 1 1 1 1 1 1 1 1 1 1 0 0 0 0 0 0 0 0 0 0 0 0 0 -0 -0 -0 -1 -1 -1 -2 -2
-0 -1 -0 -0 -0 -1 -1 -1 -1 -0 0 1 1 1 1 1 1 1 1 1 1 1 1 1 1 1 1 0 0 0 0 0 1 1 1 0 0 0 0 0 0 0 0 -0 -0 -0 -0 -0 -1 -1 -1 -2 -2 -2
-1 -1 -1 -0 -1 -1 -1 -1 -1 -1 -1 -0 -0 -1 -0 0 0 1 1 2 2 2 1 1 0 -0 -0 -0 -0 -0 -0 -0 -0 -0 -0 0 0 0 1 1 1 0 -0 -0 -0 -0 -1 -1 -1 -1 -2 -2 -3 -3

GFSWCAN_700_temp_285.txt.gz
Temp
-1 -2 -2 -1 -1 -1 -0 -1 -1 -1 -1 -0 -0 -1 -0 -0 -0 0 1 2 2 2 2 3 3 4 5 5 6 7 8 9 10 11 12 13 14 15 16 16 17 17 17 17 17 16 16 16 15 15 16 16 16 15
-3 -2 -2 -2 -1 -1 -1 -1 -1 -1 -1 -1 -1 -1 -1 -1 -0 -0 0 1 1 2 2 3 3 4 4 5 5 6 7 8 9 10 11 13 14 15 15 16 17 16 17 17 17 17 17 17 16 16 16 16 15 15
-2 -2 -2 -2 -2 -1 -2 -1 -2 -1 -1 -1 -1 -1 -1 -1 -1 -1 -0 0 1 2 2 2 2 3 4 5 5 6 6 7 8 9 11 12 13 14 15 16 16 16 17 17 17 17 17 17 16 15 15 15 15 14
-2 -2 -2 -2 -2 -2 -2 -2 -2 -2 -2 -2 -2 -1 -1 -1 -1 -1 -1 -1 -0 1 1 2 2 2 3 4 5 6 5 6 6 8 9 11 13 14 15 16 16 16 16 17 16 17 16 16 15 15 15 14 14 14
-3 -3 -3 -3 -3 -3 -3 -3 -3 -3 -3 -2 -2 -2 -1 -1 -1 -1 -1 -1 -1 -1 1 2 2 2 3 4 4 5 5 5 5 6 8 10 12 13 14 15 16 16 16 17 17 16 17 16 16 15 14 14 13 13
-3 -3 -3 -4 -4 -4 -4 -4 -4 -4 -3 -3 -3 -2 -2 -1 -2 -2 -2 -1 -1 -2 -1 1 2 1 2 3 4 5 4 5 5 5 7 9 11 12 13 14 15 16 16 16 16 16 16 16 15 14 13 13 12 12
-3 -4 -4 -4 -4 -4 -4 -5 -4 -5 -5 -5 -4 -3 -2 -2 -2 -2 -2 -2 -2 -2 -2 -1 2 2 2 3 3 4 4 4 5 5 6 8 9 10 12 14 15 15 15 15 15 15 15 15 15 13 12 12 12 12
-4 -5 -5 -5 -5 -5 -5 -6 -5 -5 -5 -5 -5 -4 -3 -3 -3 -3 -3 -3 -3 -3 -3 -3 -0 2 2 2 3 3 4 4 4 5 6 7 8 9 11 14 14 15 15 15 15 14 15 14 13 12 12 12 12 12
-5 -5 -6 -6 -6 -7 -6 -6 -5 -5 -5 -4 -4 -4 -4 -3 -4 -4 -4 -4 -5 -4 -3 -3 -1 1 2 2 3 3 3 4 5 5 6 6 8 10 12 13 14 14 14 14 14 13 12 12 12 11 11 11 11 11
-6 -6 -7 -7 -7 -7 -6 -7 -7 -6 -5 -4 -4 -4 -4 -4 -4 -4 -4 -4 -5 -3 -3 -3 -1 0 1 1 2 3 3 4 5 5 5 5 8 11 12 13 13 13 14 14 13 12 11 11 11 11 11 11 10 9
-7 -7 -7 -7 -7 -7 -8 -8 -8 -6 -6 -5 -5 -5 -5 -5 -5 -5 -4 -5 -4 -4 -2 0 -0 1 0 1 1 2 3 3 4 5 5 7 9 11 12 12 12 12 12 12 11 11 11 11 11 11 10 9 8 8
-8 -8 -8 -7 -7 -7 -8 -8 -8 -6 -6 -6 -5 -5 -5 -5 -4 -4 -4 -4 -3 -3 -1 1 2 1 1 1 1 2 2 4 5 4 6 7 10 11 11 11 11 10 10 10 11 11 11 11 10 9 8 8 8 8
-7 -7 -8 -8 -7 -7 -7 -7 -6 -5 -5 -6 -6 -5 -5 -4 -4 -4 -4 -4 -3 -2 -1 -0 -0 1 0 1 1 2 2 2 4 4 6 9 10 10 10 10 10 10 10 10 10 10 10 9 9 8 8 7 7 8
-5 -6 -7 -6 -6 -6 -7 -6 -6 -5 -5 -6 -6 -5 -5 -4 -4 -2 -2 -2 -2 -2 -0 0 -0 -0 1 1 2 3 3 3 3 3 7 8 9 9 9 9 9 9 9 9 9 9 9 8 8 8 8 7 7 7
-5 -5 -5 -5 -5 -5 -5 -5 -5 -5 -5 -6 -6 -5 -4 -3 -3 -3 -3 -2 -2 -1 0 -0 0 -0 1 2 2 2 3 3 4 6 8 8 8 9 9 9 9 9 8 8 8 8 8 8 8 7 7 7 7 7
-4 -5 -4 -4 -4 -4 -4 -4 -5 -5 -5 -6 -4 -4 -3 -3 -2 -2 -1 0 1 0 0 -0 0 0 1 1 2 3 3 5 6 7 8 9 9 9 9 8 8 8 8 8 8 8 8 7 7 7 7 7 7 6
-4 -4 -4 -4 -4 -4 -4 -5 -5 -5 -5 -4 -3 -3 -3 -2 -1 -0 0 0 1 1 1 0 1 1 1 0 1 3 5 6 7 8 8 7 8 8 8 8 7 7 7 7 8 8 7 7 7 6 6 6 6 6
-3 -3 -4 -4 -4 -4 -4 -4 -4 -4 -3 -3 -2 -2 -2 -1 -1 0 1 1 1 0 0 1 1 2 1 1 2 4 5 7 7 8 8 7 7 7 7 6 6 6 6 7 7 7 7 6 6 6 6 6 6 6
-3 -4 -4 -4 -4 -3 -3 -3 -3 -3 -2 -2 -1 -1 -1 -1 0 1 1 1 0 -0 1 1 1 1 1 2 3 5 6 6 7 7 7 7 7 6 6 6 6 6 6 6 6 6 6 6 5 5 5 5 5 5
-3 -3 -3 -3 -2 -2 -2 -2 -2 -2 -2 -2 -1 -1 -1 -0 0 0 0 0 0 0 1 0 1 1 3 3 4 5 6 6 6 7 7 6 6 6 6 6 6 6 6 6 5 5 5 5 5 5 5 4 4 4
-4 -3 -2 -2 -2 -2 -2 -2 -2 -2 -2 -1 -0 -1 -0 -0 1 1 1 0 0 0 1 2 2 3 3 4 4 5 5 6 6 6 7 6 6 5 5 5 5 5 5 5 5 5 5 4 4 4 4 4 4 4
-2 -2 -3 -3 -2 -2 -2 -2 -1 -1 -1 -1 -1 -0 -0 -0 0 0 0 1 1 1 1 2 3 3 3 4 4 4 4 5 5 5 5 6 6 5 5 4 4 4 4 4 4 4 4 4 3 3 3 3 3 3
-1 -1 -2 -2 -1 -1 -2 -1 -1 -1 -1 -0 -1 -1 -1 -0 0 0 1 1 1 1 1 1 3 3 3 4 4 4 4 4 4 4 3 3 3 3 3 2 2 3 3 3 3 3 3 2 2 2 3 3 3 3
-1 -1 -1 -1 -1 -1 -1 -1 -1 -0 -1 -1 -1 -1 -0 0 0 1 0 1 1 2 2 3 3 3 3 3 3 4 4 3 3 3 2 2 2 2 2 2 2 2 2 2 3 3 3 2 2 3 3 3 2 2
-1 -1 -1 -1 -1 -0 -0 -1 -1 -1 -1 -0 -0 -1 -0 0 0 0 0 0 2 2 2 3 3 3 3 3 3 3 3 3 3 2 2 2 2 2 2 2 2 2 2 2 2 3 3 3 3 2 2 2 2 1
-2 -2 -1 -1 -2 -1 -1 -1 -1 -0 -0 -0 -0 -0 0 -0 -0 0 1 1 1 2 3 3 3 3 3 2 2 2 2 2 2 2 2 1 2 2 2 1 1 2 2 2 2 2 3 2 2 2 2 1 1 1
-1 -1 -1 -1 -1 -1 -0 -0 -0 -0 -0 -0 0 0 0 0 -0 1 1 1 2 2 1 1 2 1 1 1 1 2 2 1 1 2 2 1 2 1 1 1 1 1 1 1 2 2 2 2 2 1 1 1 1 0
-1 -1 -0 -0 -1 -0 -0 -0 -0 -0 -0 -0 0 0 1 0 1 1 1 1 2 1 1 1 2 2 2 2 2 2 2 1 1 1 1 1 1 1 1 0 0 1 1 1 2 2 2 1 1 1 1 0 0 -0
-1 -1 -0 -1 -0 -0 -0 0 0 0 0 0 1 0 0 1 1 1 1 1 1 2 1 2 2 2 2 2 2 1 1 1 1 1 1 0 1 1 0 0 1 1 1 2 1 1 1 1 1 1 0 -0 -0 -0
-0 -0 -0 0 0 0 -0 -0 1 1 1 0 1 1 1 1 1 0 1 1 1 1 1 1 1 1 1 2 2 1 1 1 1 1 0 1 1 1 1 1 1 1 1 1 1 1 1 1 0 0 -0 -0 -1 -1
-1 -0 -0 -0 -0 -0 -0 0 1 1 0 0 -0 0 1 1 0 1 1 1 0 0 1 1 1 1 1 1 1 1 1 0 0 0 0 0 0 0 0 1 1 1 1 1 1 1 0 0 -0 -0 -1 -1 -1 -2
-0 -0 -0 -1 -1 -1 -0 -0 -0 0 0 0 0 1 1 1 1 1 1 1 1 1 2 1 1 1 1 0 0 -0 -0 0 0 0 -0 -0 0 0 0 1 1 1 1 1 0 0 0 -0 -0 -1 -1 -2 -2 -2
-0 -1 -0 -0 -0 -0 -0 0 0 0 0 0 1 1 1 1 1 1 1 1 1 1 1 1 1 1 1 0 0 0 -0 -0 -0 -0 -0 -0 0 1 1 0 1 1 0 0 0 -0 -0 -1 -1 -1 -1 -2 -2 -2

GFSWCAN_700_temp_288.txt.gz
Temp
-3 -2 -2 -2 -2 -2 -2 -1 -1 -1 -1 -1 -1 -1 -1 -0 0 1 1 2 2 2 3 4 4 4 5 6 5 6 8 8 10 10 13 14 15 15 16 17 16 16 17 18 18 18 18 17 17 16 17 17 17 16
-2 -2 -2 -2 -2 -2 -1 -1 -1 -1 -1 -1 -1 -1 -1 -1 -0 0 1 1 1 2 3 3 4 4 5 5 6 6 7 7 8 9 10 12 13 14 16 16 16 16 18 18 18 18 18 18 17 17 16 16 16 16
-3 -3 -2 -3 -2 -2 -2 -2 -2 -2 -2 -2 -2 -1 -1 -1 -1 -0 0 1 1 2 2 2 3 3 4 5 6 6 6 7 8 9 11 11 13 14 15 16 16 16 17 17 17 17 17 17 17 17 16 16 16 15
-3 -3 -3 -3 -3 -2 -2 -3 -3 -3 -3 -2 -2 -2 -1 -1 -1 -1 -0 0 1 1 2 0 3 3 4 4 5 6 6 6 7 8 9 10 10 13 14 15 15 15 16 16 16 17 17 17 17 17 16 16 15 15
-4 -4 -3 -3 -3 -3 -3 -3 -3 -3 -3 -3 -3 -2 -2 -1 -1 -1 -1 -0 -0 0 0 1 2 2 3 4 4 5 5 6 6 6 7 9 10 12 13 14 15 15 16 16 17 17 17 17 17 17 16 15 15 14
-3 -3 -4 -4 -4 -4 -4 -4 -4 -4 -4 -3 -3 -3 -2 -2 -2 -1 -1 -1 -1 -0 0 1 0 2 2 3 4 4 4 5 5 6 6 6 9 11 11 13 14 15 16 16 16 17 17 17 17 16 15 15 14 14
-4 -4 -4 -5 -5 -5 -5 -5 -5 -5 -5 -5 -4 -3 -3 -3 -3 -2 -2 -1 -1 -1 -1 0 1 1 2 2 3 4 4 4 5 5 5 5 6 9 9 12 14 14 15 16 16 16 16 16 16 15 14 14 14 13
-4 -5 -5 -6 -6 -6 -6 -6 -6 -6 -5 -5 -4 -4 -3 -3 -3 -3 -2 -2 -2 -2 -2 -1 -1 1 2 1 1 2 4 4 4 4 4 5 6 8 9 12 13 14 15 15 16 16 15 16 15 15 15 14 13 13
-5 -6 -6 -6 -7 -8 -7 -7 -6 -6 -5 -4 -4 -4 -4 -3 -3 -3 -3 -3 -3 -3 -4 -2 -1 1 2 1 1 2 3 2 4 4 4 5 6 7 10 12 13 14 14 15 15 15 15 15 15 14 14 13 13 12
-5 -6 -7 -7 -7 -8 -8 -8 -8 -7 -6 -5 -4 -4 -5 -4 -4 -4 -4 -4 -4 -5 -3 -2 -1 -1 1 1 1 2 3 3 4 4 5 5 7 7 10 12 13 14 14 15 15 15 14 14 14 13 13 12 12 12
-6 -7 -7 -7 -7 -7 -8 -8 -8 -8 -7 -6 -6 -5 -6 -5 -5 -5 -4 -4 -4 -4 -2 -0 0 -0 0 1 1 2 2 3 3 4 5 7 7 9 10 12 13 14 14 14 14 14 14 14 13 12 12 12 12 11
-6 -6 -7 -7 -7 -7 -7 -8 -8 -8 -7 -7 -6 -6 -6 -5 -5 -5 -5 -4 -4 -4 -3 -1 0 1 0 0 1 2 2 3 4 4 5 7 8 8 11 12 13 13 13 13 13 12 12 12 11 12 12 11 10 9
-4 -5 -6 -6 -6 -6 -7 -7 -7 -6 -6 -6 -6 -6 -5 -5 -5 -4 -4 -4 -3 -3 -2 -2 -1 -0 1 0 1 2 2 3 4 4 5 7 8 9 10 11 12 13 12 12 11 11 11 11 11 11 10 9 8 8
-4 -5 -5 -5 -5 -5 -6 -6 -5 -5 -5 -6 -6 -6 -6 -4 -5 -3 -4 -3 -3 -2 -2 -1 -1 -0 1 1 1 2 3 3 4 5 6 7 8 9 10 11 12 12 11 11 11 11 11 11 11 10 9 8 8 8
-3 -4 -4 -4 -4 -4 -4 -4 -4 -5 -5 -6 -6 -5 -4 -3 -3 -3 -3 -3 -2 -2 -2 -2 -1 -1 0 0 0 2 3 4 5 6 6 7 8 9 10 10 10 10 10 10 10 10 10 9 9 9 8 8 8 7
-3 -4 -4 -4 -4 -4 -4 -4 -4 -5 -5 -5 -5 -4 -3 -3 -3 -3 -3 -2 -2 -2 -2 -2 -1 -0 0 1 0 1 3 5 6 6 6 7 9 9 9 10 9 10 10 10 9 9 9 8 8 8 8 8 7 7
-3 -3 -4 -4 -4 -4 -4 -4 -4 -5 -5 -4 -3 -3 -3 -3 -2 -2 -1 -1 -1 -0 -1 -1 -0 0 1 -0 0 2 4 5 6 6 7 7 8 8 8 9 9 9 9 9 9 8 8 8 8 7 7 7 7 7
-3 -3 -3 -3 -3 -3 -3 -3 -4 -4 -3 -3 -3 -3 -2 -2 -1 -0 0 0 -0 0 -0 -1 -0 1 1 1 1 3 5 5 6 7 8 8 7 8 8 8 9 8 8 8 8 8 7 7 7 7 7 7 6 6
-3 -2 -2 -2 -2 -2 -3 -3 -3 -3 -3 -2 -1 -2 -1 -0 -0 -0 -0 0 0 0 -0 -0 1 1 1 1 3 4 5 6 6 7 7 8 7 7 7 8 8 7 7 7 6 6 7 7 6 6 6 6 6 6
-3 -2 -2 -2 -2 -2 -2 -2 -2 -2 -2 -1 -1 -1 -1 -0 -0 -0 -0 -0 -0 0 1 1 1 0 1 2 3 4 6 6 6 7 7 6 6 6 7 7 7 7 6 6 5 6 6 6 6 6 6 6 6 5
-1 -1 -2 -2 -2 -2 -2 -2 -1 -1 -1 -1 -0 -0 -0 0 -0 0 -0 0 0 0 1 1 1 2 3 3 4 5 6 6 6 7 8 7 6 6 6 5 5 5 4 5 5 5 5 5 5 5 5 5 5 4
-1 -1 -2 -1 -1 -1 -2 -1 -1 -1 -1 -1 -1 -1 -0 -0 0 0 -0 0 0 0 1 2 2 2 3 4 4 5 5 5 6 6 6 6 6 6 6 6 4 4 5 5 5 5 5 5 5 5 5 4 4 4
-1 -1 -0 -1 -1 -1 -1 -1 -1 -1 -1 -1 -1 -0 -0 0 0 0 1 1 0 1 1 2 2 2 3 4 4 4 5 5 5 5 5 5 6 5 5 5 4 4 4 4 4 4 4 4 4 4 4 4 4 4
-0 -1 -1 -1 -1 -1 -1 -1 -1 -0 -1 -1 -0 -0 0 -0 0 1 1 1 1 1 2 3 3 3 3 3 3 4 4 4 4 4 4 4 4 4 4 4 3 3 2 3 4 4 4 4 3 3 3 3 3 3
-1 -1 -1 -2 -1 -1 -1 -1 -0 -1 -0 -1 -0 -0 0 0 0 1 1 2 2 2 3 3 3 2 3 3 3 3 3 3 3 4 3 2 2 2 1 2 2 2 2 3 3 3 3 3 3 3 3 3 3 2
-1 -1 -1 -1 -1 -1 -1 -0 -0 -0 -0 -0 0 0 0 1 0 1 1 2 2 2 2 3 3 3 3 3 2 2 2 2 2 3 2 2 2 2 2 2 2 2 2 2 2 3 3 3 3 3 2 2 2 2
-1 -1 -0 -1 -0 -0 -1 -0 -0 -0 -0 -0 -0 0 0 0 0 1 1 2 2 1 2 2 2 2 2 2 2 2 2 2 2 3 2 1 1 1 1 1 1 2 2 2 2 3 3 3 2 2 2 2 1 1
-1 -0 -0 -0 -0 -0 -0 0 0 -0 0 0 0 0 0 1 1 1 2 1 1 1 1 1 1 1 1 2 2 3 2 2 1 2 2 2 2 2 2 2 2 2 2 2 2 2 3 3 2 2 1 1 1 1
-1 -0 -0 0 0 1 1 1 0 0 0 0 0 0 0 1 1 1 1 1 1 1 1 1 2 1 1 2 2 2 2 2 1 1 1 1 1 1 0 1 1 1 1 1 2 2 2 2 1 1 1 1 1 0
-0 -0 0 0 0 -0 0 1 1 1 0 0 1 1 1 1 1 1 1 1 2 2 2 2 1 1 2 2 1 1 1 1 1 -0 0 -0 1 1 1 1 1 1 1 1 1 1 1 1 1 1 1 0 0 -0
-0 -0 0 -0 -0 -0 0 0 0 -0 0 0 0 1 1 1 1 1 1 1 1 1 1 1 1 1 1 1 1 1 1 1 0 1 1 1 1 1 1 1 1 1 2 2 1 1 1 1 1 0 0 -0 -1 -1
-0 -0 -0 -0 -1 -0 -0 -0 -0 0 0 0 -0 -0 0 0 1 1 1 1 1 1 1 1 1 1 1 1 1 1 1 0 1 0 0 0 1 1 1 1 1 1 1 1 1 1 0 0 0 -0 -0 -1 -1 -2
-1 -1 -0 -0 -0 -0 0 -0 -0 -0 -0 0 1 1 1 1 1 1 2 2 2 1 1 1 1 1 1 1 0 0 0 0 0 0 1 1 1 1 1 1 1 1 1 1 0 0 -0 -0 -0 -1 -1 -1 -2 -2

GFSWCAN_700_temp_291.txt.gz
Temp
-2 -3 -3 -3 -2 -2 -2 -2 -2 -1 -1 -0 -0 -0 -0 0 0 1 2 2 3 3 2 3 4 4 4 6 8 8 9 10 12 13 15 17 18 18 18 18 17 17 18 19 19 19 20 19 18 18 18 17 17 17
-3 -3 -3 -3 -3 -3 -3 -2 -2 -2 -1 -1 -1 -1 -1 -0 0 0 0 1 2 2 1 3 5 5 6 5 5 6 7 9 9 12 14 16 17 17 18 18 17 17 18 19 19 19 19 18 18 18 18 17 16 16
-3 -3 -3 -4 -3 -3 -3 -3 -2 -2 -2 -2 -1 -1 -1 -1 -0 -0 0 1 1 2 2 3 4 4 5 6 6 8 6 6 8 10 10 11 12 14 17 18 17 17 18 19 19 18 18 18 18 17 17 17 16 15
-3 -3 -3 -3 -4 -4 -3 -3 -3 -3 -3 -3 -2 -2 -1 -1 -1 -0 -0 0 0 1 1 3 1 3 5 5 6 6 4 6 5 9 8 10 12 13 16 17 17 18 17 18 17 17 17 17 17 17 17 16 15 15
-3 -3 -3 -4 -4 -4 -4 -4 -4 -4 -4 -4 -3 -2 -2 -2 -1 -1 -0 -0 0 0 -0 1 1 2 4 4 5 6 6 6 7 7 8 9 11 11 12 14 16 16 17 17 17 17 17 17 17 16 16 16 15 15
-3 -3 -4 -4 -5 -5 -5 -5 -5 -5 -5 -4 -4 -3 -3 -2 -1 -1 -2 -1 -0 -0 0 0 1 1 2 3 5 5 5 6 6 5 6 8 10 9 12 14 15 17 17 16 17 17 17 16 17 16 15 14 15 15
-3 -4 -5 -5 -5 -6 -6 -6 -6 -6 -6 -6 -6 -4 -4 -3 -2 -1 -2 -1 -1 -0 -0 -1 2 2 1 2 2 3 4 3 3 4 5 7 9 8 10 13 15 16 16 15 16 15 16 16 17 15 14 13 14 15
-4 -5 -5 -6 -7 -7 -7 -7 -7 -7 -7 -6 -5 -4 -4 -4 -3 -4 -2 -2 -1 -1 -1 -1 1 1 1 2 3 3 3 3 3 4 4 6 8 8 9 11 13 15 15 14 16 15 15 15 14 14 13 14 15 15
-4 -5 -6 -6 -7 -8 -8 -8 -7 -6 -6 -5 -4 -4 -4 -4 -4 -3 -3 -2 -2 -2 -1 -2 2 4 2 3 3 3 3 4 4 4 4 6 8 9 9 10 12 13 13 13 14 15 15 14 13 12 13 14 15 14
-4 -5 -6 -6 -7 -7 -7 -7 -8 -8 -7 -5 -5 -5 -6 -5 -4 -3 -4 -4 -4 -3 -2 1 -1 1 2 3 4 3 3 4 5 5 5 6 8 9 9 9 10 12 12 14 13 13 13 13 12 14 13 14 14 13
-4 -5 -6 -6 -6 -6 -6 -7 -7 -7 -7 -7 -7 -6 -6 -5 -5 -4 -4 -4 -4 -3 -2 0 1 0 1 2 3 4 4 4 5 5 6 7 7 8 8 8 9 12 13 14 14 13 13 14 13 12 12 14 13 13
-3 -4 -5 -5 -6 -6 -6 -6 -6 -7 -7 -7 -6 -5 -5 -5 -4 -4 -4 -3 -3 -2 -0 -1 -1 1 0 0 1 2 3 4 5 7 7 7 8 8 8 8 10 12 13 14 12 12 11 10 10 10 14 13 12 12
-3 -3 -4 -4 -5 -5 -5 -6 -6 -6 -5 -6 -6 -6 -5 -5 -4 -4 -4 -3 -2 -1 -1 -1 -1 -0 -1 -0 1 2 3 4 5 6 7 7 8 8 8 9 9 12 13 12 11 11 10 9 10 13 12 12 12 11
-3 -3 -3 -4 -4 -4 -4 -4 -4 -5 -5 -6 -6 -5 -5 -5 -4 -3 -3 -2 -2 -2 -1 -2 -2 -1 0 0 1 2 3 5 5 6 7 7 8 8 8 9 10 11 12 10 10 9 9 12 12 12 11 11 11 10
-3 -4 -4 -4 -4 -4 -4 -4 -4 -4 -5 -6 -6 -5 -4 -4 -4 -4 -4 -3 -3 -3 -3 -1 -1 -1 -0 0 1 2 3 4 6 6 7 7 8 8 9 9 10 9 9 9 9 12 12 12 11 11 11 11 10 9
-3 -3 -3 -4 -4 -4 -4 -4 -5 -5 -5 -5 -5 -4 -3 -3 -3 -3 -3 -3 -3 -3 -3 -2 -2 -1 -0 1 1 2 3 6 7 7 7 7 7 7 8 9 10 8 8 10 11 11 11 10 10 11 10 10 9 9
-3 -3 -3 -4 -4 -4 -4 -4 -5 -5 -5 -5 -3 -3 -4 -3 -3 -3 -3 -2 -2 -2 -3 -3 -2 -0 0 1 1 2 2 4 5 6 7 8 8 8 8 8 9 10 9 9 10 10 10 10 10 10 9 9 8 8
-4 -4 -4 -4 -4 -3 -3 -3 -4 -4 -3 -3 -3 -2 -2 -1 -1 -1 -1 -2 -2 -2 -2 -2 -1 -0 0 2 2 3 2 4 5 5 7 7 7 8 8 8 8 9 9 10 10 10 10 9 9 9 8 8 8 7
-3 -3 -3 -3 -3 -3 -3 -3 -3 -3 -2 -1 -1 -1 -1 -0 0 -1 -1 0 -1 -1 -1 -1 -1 -0 1 1 2 2 3 5 5 5 6 6 6 7 7 8 8 9 9 9 9 9 8 8 8 8 7 7 7 7
-2 -2 -3 -3 -3 -2 -2 -2 -2 -1 -1 -1 -0 -1 -0 -0 -0 -0 -0 -0 0 0 -0 -0 0 0 1 2 2 3 4 6 5 5 6 6 6 6 7 7 8 8 8 8 8 7 7 7 6 6 6 6 6 6
-1 -1 -2 -2 -2 -1 -2 -1 -1 -1 -1 -1 -0 -0 0 -0 0 0 0 -0 -0 -0 -0 -0 0 0 1 1 2 4 3 5 5 4 6 6 6 6 7 7 7 6 7 7 6 6 6 6 6 4 6 6 6 6
-1 -1 -1 -1 -1 -1 -1 -1 -1 -1 -1 -1 -1 -0 -0 0 0 0 0 -0 0 0 1 0 0 3 3 3 4 4 5 6 5 5 6 5 6 5 5 5 5 5 5 5 5 5 5 4 4 4 5 5 5 5
-0 -0 -0 0 -1 -1 -1 -1 -0 -1 -1 -0 -0 -0 0 0 1 0 1 0 1 0 1 2 2 3 4 4 5 5 5 6 6 6 6 5 5 5 5 5 5 4 4 5 5 4 5 4 4 5 5 5 5 5
-0 -0 -0 -1 -0 -1 -1 -0 -0 -0 -0 -0 -0 0 -0 0 1 1 0 1 2 2 2 3 3 3 3 4 4 5 5 5 5 5 5 5 5 4 4 4 4 4 4 5 5 4 3 4 4 4 4 4 4 4
-1 -1 -1 -1 -1 -1 -0 -0 0 -0 -0 -0 0 0 0 1 1 0 1 2 3 2 3 3 3 3 3 4 4 4 4 4 4 4 4 4 4 4 4 4 5 4 3 3 3 4 4 4 4 4 3 3 3 3
-0 -0 -1 -0 -0 -0 -0 -0 -0 -0 0 0 0 1 1 1 1 1 1 2 2 3 2 3 3 3 3 3 3 3 3 3 3 3 3 3 3 4 4 3 3 2 2 2 2 3 3 3 3 3 3 3 3 3
-0 -0 -0 -0 -0 -0 -0 0 0 0 0 0 0 1 1 1 1 1 1 2 2 3 3 3 3 3 3 2 3 3 3 2 2 3 2 1 1 1 1 1 2 2 2 2 2 2 3 3 3 3 3 3 3 2
-0 0 0 0 -0 -0 0 0 0 0 0 1 1 1 1 1 1 1 1 2 2 2 2 2 2 1 1 1 2 2 3 3 3 3 2 0 0 -0 -1 1 2 2 2 2 2 2 3 3 3 2 2 2 2 1
0 0 0 0 0 1 1 0 0 0 0 0 1 1 1 1 1 1 1 1 1 1 1 1 1 1 1 2 2 1 1 1 1 1 1 0 0 1 2 2 2 2 2 2 2 2 2 2 2 1 0 -1 -0 1
0 0 0 0 -0 -0 -0 0 -0 0 0 0 0 1 1 1 1 1 1 1 1 1 1 2 2 1 2 1 2 1 1 1 1 1 0 -0 1 0 1 1 1 1 2 2 2 2 2 2 2 1 1 1 1 0
0 0 0 0 0 -0 0 -0 -0 -0 -0 -0 -0 -0 -0 1 1 1 1 1 1 1 1 1 2 2 2 2 2 1 1 1 1 0 0 0 -0 1 1 1 1 0 2 2 2 2 2 2 2 1 1 -0 -2 -1
0 0 0 0 0 0 0 0 -0 0 0 -0 0 1 1 0 0 1 1 1 1 1 1 1 2 1 1 1 1 1 1 0 1 1 0 -0 1 1 2 1 1 1 2 1 1 0 1 1 -1 -2 -2 -1 -0 -2
-0 -0 0 1 0 0 0 1 1 1 1 1 1 1 1 1 1 2 2 1 0 1 0 0 0 0 1 1 1 1 0 1 1 1 1 1 1 1 1 0 0 1 1 0 -1 -1 1 0 -2 -1 -0 -2 -2 -2